This is the latest recevied weather packets stored in our database for station/object KI5GCD-13. If no packets are shown the sender has not sent any weather packets the latest 10 day(s).
| Time | Temp. | Humidity | Pressure | Rain* | Wind** | Luminosity | Snow |
|---|---|---|---|---|---|---|---|
| 1777414487 | 17.78° C | 97% | 1006.4 hPa | 0 mm | 0.45 m/s, 247° | - | - |
| 1777414187 | 17.22° C | 97% | 1006.3 hPa | 0 mm | 1.34 m/s, 227° | - | - |
| 1777413887 | 17.22° C | 98% | 1005.8 hPa | 0 mm | 1.34 m/s, 22° | - | - |
| 1777413587 | 17.22° C | 98% | 1006.2 hPa | 0 mm | 0.89 m/s, 358° | - | - |
| 1777413288 | 17.22° C | 98% | 1006.2 hPa | 0 mm | 0.89 m/s, 358° | - | - |
| 1777412988 | 17.22° C | 99% | 1006.7 hPa | 0 mm | 0.45 m/s, 264° | - | - |
| 1777412688 | 17.22° C | 98% | 1006.7 hPa | 0 mm | 0 m/s | - | - |
| 1777412387 | 17.22° C | 98% | 1006.6 hPa | 0 mm | 0 m/s | - | - |
| 1777412088 | 16.67° C | 98% | 1006.2 hPa | 0 mm | 0.89 m/s, 333° | - | - |
| 1777411788 | 17.22° C | 98% | 1006.3 hPa | 0 mm | 0.89 m/s, 305° | - | - |
| 1777411488 | 17.22° C | 97% | 1006.6 hPa | 0 mm | 0.89 m/s, 5° | - | - |
| 1777411188 | 17.22° C | 98% | 1006.9 hPa | 0 mm | 0.45 m/s, 247° | - | - |
| 1777410887 | 17.22° C | 99% | 1007 hPa | 0 mm | 0.45 m/s, 275° | - | - |
| 1777410588 | 16.11° C | 99% | 1006.8 hPa | 0 mm | 0.45 m/s, 234° | - | - |
| 1777410292 | 16.11° C | 99% | 1007.1 hPa | 0 mm | 0 m/s | - | - |
| 1777409987 | 16.11° C | 99% | 1007.5 hPa | 0 mm | 0.45 m/s, 287° | - | - |
| 1777409688 | 16.11° C | 99% | 1007.7 hPa | 0 mm | 0.89 m/s, 228° | - | - |
| 1777409387 | 16.11° C | 99% | 1007.6 hPa | 1.02 mm | 0.89 m/s, 229° | - | - |
| 1777409087 | 16.11° C | 99% | 1008 hPa | 2.79 mm | 1.34 m/s, 72° | - | - |
| 1777408787 | 16.11° C | 99% | 1008.7 hPa | 1.78 mm | 0.45 m/s, 272° | - | - |
| 1777408487 | 16.11° C | 99% | 1007.5 hPa | 1.78 mm | 0.45 m/s, 268° | - | - |
| 1777408187 | 16.11° C | 99% | 1008.1 hPa | 1.02 mm | 0.45 m/s, 257° | - | - |
| 1777407887 | 16.11° C | 99% | 1007.9 hPa | 1.02 mm | 0.45 m/s, 272° | - | - |
| 1777407587 | 16.67° C | 99% | 1007.8 hPa | 0 mm | 0.89 m/s, 291° | - | - |
| 1777407287 | 16.67° C | 99% | 1008.3 hPa | 0 mm | 0.45 m/s, 266° | - | - |
* Rain latest hour (hover to see other rain measurements)
** Current wind speed in m/s (hover to see current wind gust speed)